STARLINK-35439

Last updated on Fri Dec 12 2025 00:02:05 GMT+0000 (Coordinated Universal Time)

1 66431U 25259K 25345.56280211 .00063817 00000+0 15220-2 0 9993 2 66431 43.0021 54.6176 0000976 273.9156 86.1589 15.40703994 5987
UTC large
Height (km)
Speed (km/s)
/
Latitude / Longitude
Inclination (degrees)
Orbital Period (minutes)
Azimuth
Elevation
Range (km)
Doppler Factor

Next 0 passes for location: London (51.5072 / 0.1276)

Sorry there are no passes over London.